This demonstration page uses our WeatherBlox Daily Observations layout. Learn more.

Left ArrowRight Arrow

38.20091, -84.87328

Hourly Observations for February 4, 2020

Temp ( °F °C ) Dew Point ( °F °C ) Humidity (%) Winds ( mph kmh ) Pressure ( in mb ) Visibility ( mi km ) Precip ( " mm )
12:53 am 00:53 Mostly Cloudy 64 17.8 41 5 43 43 SW 18 30 29.81 1010 10 16 0.00 0.00
1:53 am 01:53 Cloudy 63 17.2 44 6.7 50 50 SSW 18 30 29.81 1010 10 16 0.00 0.00
2:53 am 02:53 Cloudy 61 16.1 46 7.8 58 58 SW 14 22 29.83 1010 10 16 0.00 0.00
3:53 am 03:53 Cloudy 59 15 49 9.4 69 69 SSW 14 22 29.84 1011 10 16 0.00 0.00
4:53 am 04:53 Cloudy 58 14.4 51 10.6 78 78 SSW 10 17 29.84 1010 10 16 0.00 0.00
5:53 am 05:53 Cloudy with Rain 56 13.3 52 11.1 87 87 SW 12 19 29.86 1011 7 11 0.01 0.25
6:04 am 06:04 Cloudy with Light Rain 56 13.3 52 11.1 87 87 SW 12 19 29.87 1012 6 10 0.02 0.51
6:53 am 06:53 Cloudy with Light Rain 56 13.3 53 11.7 90 90 SSW 10 17 29.86 1011 10 16 0.04 1.02
7:53 am 07:53 Cloudy 56 13.3 53 11.7 90 90 SSW 10 17 29.88 1012 10 16 0.01 0.25
8:25 am 08:25 Cloudy 56 13.3 53 11.7 90 90 SSW 12 19 29.88 1012 10 16 0.00 0.00
8:53 am 08:53 Cloudy 56 13.3 53 11.7 90 90 SSW 10 17 29.88 1012 10 16 0.00 0.00
9:53 am 09:53 Cloudy 57 13.9 54 12.2 90 90 SSW 10 17 29.85 1011 10 16 0.02 0.51
10:53 am 10:53 Cloudy 58 14.4 55 12.8 90 90 SSW 13 20 29.85 1011 10 16 0.00 0.00
11:29 am 11:29 Cloudy with Light Rain 58 14.4 55 12.8 90 90 SSW 10 17 29.86 1011 10 16 0.00 0.00
11:53 am 11:53 Cloudy 58 14.4 55 12.8 90 90 SSW 9 15 29.83 1010 10 16 0.01 0.25
12:15 pm 12:15 Cloudy with Light Rain 58 14.4 55 12.8 90 90 SSW 12 19 29.84 1010 10 16 0.01 0.25
12:53 pm 12:53 Cloudy with Light Rain 58 14.4 55 12.8 90 90 SSW 10 17 29.82 1010 5 8 0.07 1.78
1:24 pm 13:24 Cloudy with Light Rain 58 14.4 55 12.8 90 90 SSW 6 9 29.80 1009 2 3 0.02 0.51
1:37 pm 13:37 Cloudy with Light Rain 58 14.4 56 13.3 93 93 S 9 15 29.80 1009 7 11 0.03 0.76
1:53 pm 13:53 Cloudy 58 14.4 56 13.3 93 93 S 9 15 29.78 1008 10 16 0.03 0.76
2:53 pm 14:53 Cloudy with Light Rain 58 14.4 56 13.3 93 93 S 7 11 29.76 1008 10 16 0.02 0.51
3:53 pm 15:53 Cloudy 58 14.4 56 13.3 93 93 SSW 6 9 29.76 1008 10 16 0.01 0.25
4:53 pm 16:53 Cloudy with Light Rain 58 14.4 56 13.3 93 93 SW 3 6 29.77 1008 3 4 0.01 0.25
5:07 pm 17:07 Cloudy with Mist and Fog 58 14.4 56 13.3 93 93 Calm 29.78 1008 4 6 0.00 0.00
5:53 pm 17:53 Cloudy with Light Rain 58 14.4 56 13.3 93 93 Calm 29.77 1008 4 6 0.03 0.76
6:15 pm 18:15 Cloudy with Light Rain 57 13.9 56 13.3 96 96 NW 3 6 29.79 1009 3 5 0.00 0.00
6:53 pm 18:53 Cloudy with Light Rain 57 13.9 56 13.3 96 96 NNW 3 6 29.79 1009 3 5 0.03 0.76
7:04 pm 19:04 Cloudy with Light Rain 57 13.9 56 13.3 96 96 Calm 29.80 1009 3 4 0.01 0.25
7:27 pm 19:27 Cloudy with Rain 57 13.9 56 13.3 96 96 Calm 29.82 1010 3 4 0.07 1.78
7:31 pm 19:31 Cloudy with Rain 57 13.9 56 13.3 96 96 Calm 29.82 1010 3 5 0.08 2.03
7:53 pm 19:53 Cloudy with Light Rain 57 13.9 56 13.3 96 96 Calm 29.81 1009 5 8 0.12 3.05
8:00 pm 20:00 Cloudy with Light Rain 57 13.9 56 13.3 96 96 Calm 29.82 1010 6 10 0.01 0.25
8:53 pm 20:53 Cloudy with Light Rain 57 13.9 55 12.8 93 93 NW 6 9 29.82 1010 5 8 0.04 1.02
9:03 pm 21:03 Cloudy with Rain 49 9.4 47 8.3 93 93 NNW 21 33 29.85 1011 4 6 0.03 0.76
9:18 pm 21:18 Cloudy with Light Rain 46 7.8 44 6.7 93 93 N 12 19 29.87 1011 9 14 0.04 1.02
9:29 pm 21:29 Cloudy 45 7.2 42 5.6 90 90 N 12 19 29.88 1012 10 16 0.04 1.02
9:53 pm 21:53 Cloudy with Rain 44 6.7 42 5.6 93 93 N 14 22 29.87 1011 6 10 0.07 1.78
10:53 pm 22:53 Cloudy 42 5.6 39 3.9 89 89 N 13 20 29.87 1011 10 16 0.04 1.02
11:38 pm 23:38 Cloudy 40 4.4 37 2.8 89 89 NNE 10 17 29.93 1013 10 16 0.00 0.00
11:53 pm 23:53 Cloudy with Light Rain 40 4.4 37 2.8 89 89 N 12 19 29.91 1013 10 16 0.00 0.00

Powered by AerisWeather